Terug naar catalogus

COSMOS 2599

ActiefMilitairPO
NORAD 66649·PAYLOAD·🇷🇺 Russia

Gelanceerd Nov 25, 2025 vanaf Plesetsk Cosmodrome

Loading…

Volgende Passages (komende 24 uur)

TLE

VersSource: Space-Track

Epoch: Sep 14, 2026, 14:50 UTC

1 66649U 25273C   26257.61826313  .00000044  00000-0  24509-3 0  9993
2 66649  82.5003 115.0604 0016518  11.6746 348.4714 12.42899041 36408

Volg COSMOS 2599 in realtime met AllMySat

Download on the App Store